When you browse on this site, cookies collect data to enhance your experience and personalize the content and advertising you see.
Visit our Privacy Policy to learn more. By continuing to use the site, you agree to this use of cookies and data.
  • In Deutschland
  • Länderverzeichnis
  • Für 7 Tage
  • Wassertemperatur
  • Wetterkarte
  • Widgets
  • user-avatar
    Anmelden

    Stündliche Wetter Brisbane

    Heute, 22 August, Donnerstag

    Zeit Temperatur Niederschläge Wind Luftdruck Luftfeuchtigkeit
    00:00 +14°C° 0 mm 4 m/S 760 mmHg 57%
    01:00 +13°C° 0 mm 4 m/S 760 mmHg 60%
    02:00 +13°C° 0 mm 4 m/S 760 mmHg 62%
    03:00 +13°C° 0 mm 4 m/S 760 mmHg 63%
    04:00 +13°C° 0 mm 4 m/S 760 mmHg 64%
    05:00 +13°C° 0 mm 4 m/S 760 mmHg 63%
    06:00 +13°C° 0 mm 4 m/S 760 mmHg 61%
    07:00 +13°C° 0 mm 4 m/S 760 mmHg 60%
    08:00 +15°C° 0 mm 5 m/S 760 mmHg 52%
    09:00 +17°C° 0 mm 5 m/S 759 mmHg 45%
    10:00 +21°C° 0 mm 5 m/S 759 mmHg 36%
    11:00 +22°C° 0 mm 5 m/S 758 mmHg 33%
    12:00 +23°C° 0 mm 6 m/S 758 mmHg 29%
    13:00 +26°C° 0 mm 6 m/S 757 mmHg 26%
    14:00 +24°C° 0 mm 6 m/S 757 mmHg 28%
    15:00 +24°C° 0 mm 6 m/S 757 mmHg 30%
    16:00 +24°C° 0 mm 6 m/S 756 mmHg 30%
    17:00 +22°C° 0 mm 6 m/S 757 mmHg 34%
    18:00 +21°C° 0 mm 5 m/S 758 mmHg 39%
    19:00 +19°C° 0 mm 5 m/S 759 mmHg 44%
    20:00 +17°C° 0 mm 5 m/S 760 mmHg 50%
    21:00 +17°C° 0 mm 4 m/S 761 mmHg 56%
    22:00 +17°C° 0 mm 4 m/S 762 mmHg 62%
    23:00 +17°C° 0 mm 4 m/S 762 mmHg 65%

    Morgen, 23 August, Freitag

    Zeit Temperatur Niederschläge Wind Luftdruck Luftfeuchtigkeit
    00:00 +17°C° 0 mm 4 m/S 762 mmHg 67%
    01:00 +15°C° 0 mm 4 m/S 762 mmHg 70%
    02:00 +14°C° 0 mm 4 m/S 763 mmHg 73%
    03:00 +13°C° 0 mm 4 m/S 763 mmHg 76%
    04:00 +13°C° 0 mm 3 m/S 763 mmHg 79%
    05:00 +12°C° 0 mm 3 m/S 764 mmHg 76%
    06:00 +12°C° 0 mm 3 m/S 765 mmHg 73%
    07:00 +12°C° 0 mm 3 m/S 766 mmHg 70%
    08:00 +14°C° 0 mm 3 m/S 766 mmHg 61%
    09:00 +17°C° 0 mm 3 m/S 766 mmHg 52%
    10:00 +19°C° 0 mm 3 m/S 766 mmHg 43%
    11:00 +20°C° 0 mm 4 m/S 765 mmHg 41%
    12:00 +21°C° 0 mm 4 m/S 765 mmHg 39%
    13:00 +22°C° 0 mm 4 m/S 765 mmHg 38%
    14:00 +22°C° 0 mm 4 m/S 765 mmHg 40%
    15:00 +21°C° 0 mm 4 m/S 765 mmHg 43%
    16:00 +21°C° 0 mm 4 m/S 765 mmHg 45%
    17:00 +19°C° 0 mm 4 m/S 765 mmHg 53%
    18:00 +18°C° 0 mm 4 m/S 766 mmHg 60%
    19:00 +15°C° 0 mm 4 m/S 767 mmHg 68%
    20:00 +16°C° 0 mm 3 m/S 767 mmHg 70%
    21:00 +14°C° 0 mm 3 m/S 767 mmHg 73%
    22:00 +14°C° 0 mm 2 m/S 767 mmHg 76%
    23:00 +14°C° 0 mm 2 m/S 767 mmHg 77%

    übermorgen, 24 August, Samstag

    Zeit Temperatur Niederschläge Wind Luftdruck Luftfeuchtigkeit
    00:00 +13°C° 0 mm 2 m/S 767 mmHg 79%
    01:00 +13°C° 0 mm 2 m/S 766 mmHg 81%
    02:00 +12°C° 0 mm 2 m/S 766 mmHg 81%
    03:00 +12°C° 0 mm 2 m/S 766 mmHg 82%
    04:00 +11°C° 0 mm 1 m/S 766 mmHg 83%
    05:00 +12°C° 0 mm 1 m/S 766 mmHg 82%
    06:00 +12°C° 0 mm 1 m/S 767 mmHg 81%
    07:00 +12°C° 0 mm 1 m/S 767 mmHg 81%
    08:00 +15°C° 0 mm 1 m/S 767 mmHg 70%
    09:00 +18°C° 0 mm 1 m/S 767 mmHg 60%
    10:00 +21°C° 0 mm 1 m/S 767 mmHg 49%
    11:00 +22°C° 0 mm 1 m/S 766 mmHg 45%
    12:00 +23°C° 0 mm 1 m/S 765 mmHg 41%
    13:00 +24°C° 0 mm 1 m/S 765 mmHg 37%
    14:00 +24°C° 0 mm 2 m/S 764 mmHg 39%
    15:00 +23°C° 0 mm 2 m/S 764 mmHg 41%
    16:00 +21°C° 0 mm 3 m/S 763 mmHg 44%
    17:00 +20°C° 0 mm 3 m/S 764 mmHg 52%
    18:00 +18°C° 0 mm 3 m/S 764 mmHg 60%
    19:00 +16°C° 0 mm 3 m/S 765 mmHg 68%
    20:00 +14°C° 0 mm 3 m/S 765 mmHg 71%
    21:00 +15°C° 0 mm 2 m/S 765 mmHg 73%
    22:00 +14°C° 0 mm 2 m/S 765 mmHg 76%
    23:00 +14°C° 0 mm 2 m/S 765 mmHg 77%

    25 August, Sonntag

    Zeit Temperatur Niederschläge Wind Luftdruck Luftfeuchtigkeit
    00:00 +13°C° 0 mm 1 m/S 764 mmHg 78%
    01:00 +13°C° 0 mm 1 m/S 764 mmHg 80%
    02:00 +13°C° 0 mm 1 m/S 764 mmHg 81%
    03:00 +12°C° 0 mm 1 m/S 764 mmHg 82%
    04:00 +12°C° 0 mm 1 m/S 764 mmHg 84%
    05:00 +12°C° 0 mm 1 m/S 764 mmHg 83%
    06:00 +12°C° 0 mm 1 m/S 764 mmHg 82%
    07:00 +12°C° 0 mm 1 m/S 765 mmHg 81%
    08:00 +15°C° 0 mm 1 m/S 764 mmHg 70%
    09:00 +19°C° 0 mm 1 m/S 764 mmHg 59%
    10:00 +22°C° 0 mm 1 m/S 764 mmHg 48%
    11:00 +23°C° 0 mm 2 m/S 763 mmHg 43%
    12:00 +25°C° 0 mm 2 m/S 762 mmHg 38%
    13:00 +26°C° 0 mm 2 m/S 761 mmHg 32%
    14:00 +26°C° 0 mm 2 m/S 761 mmHg 35%
    15:00 +25°C° 0 mm 3 m/S 760 mmHg 38%
    16:00 +25°C° 0 mm 3 m/S 760 mmHg 41%
    17:00 +22°C° 0 mm 3 m/S 760 mmHg 48%
    18:00 +20°C° 0 mm 3 m/S 761 mmHg 55%
    19:00 +18°C° 0 mm 3 m/S 761 mmHg 61%
    20:00 +18°C° 0 mm 3 m/S 761 mmHg 63%
    21:00 +17°C° 0 mm 3 m/S 762 mmHg 64%
    22:00 +17°C° 0 mm 3 m/S 762 mmHg 65%
    23:00 +16°C° 0 mm 2 m/S 762 mmHg 67%

    26 August, Montag

    Zeit Temperatur Niederschläge Wind Luftdruck Luftfeuchtigkeit
    00:00 +16°C° 0 mm 2 m/S 762 mmHg 68%
    01:00 +15°C° 0 mm 2 m/S 761 mmHg 69%
    02:00 +15°C° 0 mm 2 m/S 761 mmHg 69%
    03:00 +15°C° 0 mm 1 m/S 761 mmHg 69%
    04:00 +15°C° 0 mm 1 m/S 761 mmHg 70%
    05:00 +15°C° 0 mm 1 m/S 761 mmHg 70%
    06:00 +15°C° 0 mm 1 m/S 762 mmHg 71%
    07:00 +15°C° 0 mm 1 m/S 762 mmHg 72%
    08:00 +19°C° 0 mm 1 m/S 762 mmHg 62%
    09:00 +21°C° 0 mm 2 m/S 762 mmHg 52%
    10:00 +25°C° 0 mm 2 m/S 762 mmHg 43%
    11:00 +26°C° 0 mm 2 m/S 761 mmHg 38%
    12:00 +27°C° 0 mm 1 m/S 761 mmHg 34%
    13:00 +28°C° 0 mm 1 m/S 760 mmHg 29%
    14:00 +26°C° 0 mm 2 m/S 760 mmHg 37%
    15:00 +25°C° 0 mm 3 m/S 760 mmHg 44%
    16:00 +22°C° 0 mm 4 m/S 760 mmHg 51%
    17:00 +21°C° 0 mm 3 m/S 760 mmHg 58%
    18:00 +20°C° 0 mm 3 m/S 761 mmHg 65%
    19:00 +19°C° 0 mm 2 m/S 762 mmHg 72%
    20:00 +18°C° 0.1 mm 2 m/S 762 mmHg 74%
    21:00 +19°C° 0.1 mm 1 m/S 763 mmHg 76%
    22:00 +18°C° 0.1 mm 1 m/S 763 mmHg 78%
    23:00 +18°C° 0 mm 1 m/S 763 mmHg 79%

    27 August, Dienstag

    Zeit Temperatur Niederschläge Wind Luftdruck Luftfeuchtigkeit
    00:00 +16°C° 0 mm 1 m/S 763 mmHg 80%
    01:00 +16°C° 0 mm 2 m/S 763 mmHg 81%
    02:00 +15°C° 0 mm 2 m/S 763 mmHg 82%
    03:00 +15°C° 0 mm 2 m/S 763 mmHg 83%
    04:00 +14°C° 0 mm 2 m/S 763 mmHg 83%
    05:00 +14°C° 0 mm 2 m/S 763 mmHg 83%
    06:00 +15°C° 0 mm 2 m/S 764 mmHg 82%
    07:00 +15°C° 0 mm 2 m/S 765 mmHg 81%
    08:00 +17°C° 0 mm 2 m/S 764 mmHg 69%
    09:00 +21°C° 0 mm 1 m/S 764 mmHg 58%
    10:00 +24°C° 0 mm 1 m/S 764 mmHg 46%
    11:00 +25°C° 0 mm 1 m/S 764 mmHg 42%
    12:00 +26°C° 0 mm 2 m/S 763 mmHg 38%
    13:00 +27°C° 0 mm 2 m/S 762 mmHg 34%
    14:00 +26°C° 0 mm 2 m/S 762 mmHg 39%
    15:00 +24°C° 0 mm 3 m/S 762 mmHg 44%
    16:00 +22°C° 0 mm 3 m/S 762 mmHg 48%
    17:00 +21°C° 0.2 mm 3 m/S 763 mmHg 55%
    18:00 +19°C° 0.2 mm 2 m/S 763 mmHg 62%
    19:00 +18°C° 0.2 mm 2 m/S 764 mmHg 69%
    20:00 +18°C° 0.1 mm 1 m/S 764 mmHg 72%
    21:00 +18°C° 0.1 mm 1 m/S 764 mmHg 74%
    22:00 +16°C° 0.1 mm 1 m/S 764 mmHg 77%
    23:00 +16°C° 0 mm 1 m/S 764 mmHg 79%
    Mehr zeigen